QPF
0.01 0.01 0.00 0.01 0.01 0.01 0.01 0.01 0.01 0.00 0.00 0.00 0.00 0.00 0.00 0.00 0.01 0.00 0.01 0.01 0.01 0.01 0.01 0.01 0.01 0.01 0.01 0.01 0.01 0.01 0.01 0.01 0.01 0.00 0.00 0.00 0.00 0.00 0.00 0.00 0.00 0.00 0.00 0.00
0.02 0.01 0.00 0.00 0.00 0.00 0.01 0.00 0.00 0.00 0.00 0.00 0.00 0.00 0.00 0.01 0.01 0.01 0.01 0.01 0.01 0.01 0.01 0.01 0.01 0.01 0.01 0.01 0.01 0.01 0.01 0.01 0.00 0.00 0.00 0.00 0.00 0.00 0.00 0.00 0.00 0.00 0.00 0.00
0.03 0.01 0.01 0.01 0.01 0.00 0.00 0.00 0.00 0.00 0.00 0.00 0.00 0.00 0.01 0.00 0.01 0.01 0.01 0.01 0.01 0.02 0.02 0.02 0.01 0.01 0.01 0.01 0.01 0.01 0.01 0.00 0.00 0.00 0.00 0.00 0.00 0.00 0.00 0.00 0.00 0.00 0.00 0.00
0.03 0.02 0.03 0.02 0.01 0.00 0.00 0.00 0.00 0.01 0.01 0.01 0.01 0.01 0.01 0.00 0.00 0.00 0.01 0.01 0.01 0.01 0.01 0.02 0.02 0.02 0.02 0.01 0.01 0.01 0.00 0.00 0.00 0.00 0.00 0.00 0.00 0.00 0.00 0.00 0.00 0.00 0.00 0.00
0.03 0.03 0.02 0.01 0.00 0.01 0.01 0.01 0.01 0.01 0.01 0.01 0.01 0.01 0.01 0.01 0.01 0.01 0.01 0.01 0.01 0.01 0.01 0.02 0.02 0.02 0.02 0.02 0.01 0.01 0.01 0.00 0.00 0.00 0.00 0.00 0.00 0.00 0.00 0.00 0.00 0.00 0.00 0.01
0.04 0.03 0.02 0.01 0.01 0.01 0.01 0.01 0.01 0.02 0.02 0.02 0.02 0.01 0.01 0.01 0.00 0.00 0.01 0.01 0.01 0.01 0.01 0.01 0.01 0.02 0.02 0.02 0.02 0.01 0.01 0.00 0.00 0.01 0.00 0.00 0.00 0.00 0.00 0.00 0.00 0.00 0.00 0.01
0.04 0.03 0.02 0.01 0.01 0.01 0.02 0.02 0.01 0.02 0.03 0.03 0.03 0.02 0.01 0.01 0.01 0.01 0.01 0.01 0.01 0.01 0.01 0.01 0.01 0.01 0.02 0.02 0.02 0.01 0.01 0.01 0.01 0.01 0.01 0.00 0.00 0.00 0.00 0.00 0.00 0.00 0.00 0.00
0.03 0.04 0.02 0.01 0.01 0.02 0.02 0.02 0.02 0.02 0.02 0.02 0.02 0.02 0.01 0.01 0.01 0.01 0.01 0.01 0.01 0.01 0.01 0.01 0.02 0.02 0.01 0.02 0.02 0.02 0.01 0.01 0.01 0.01 0.01 0.01 0.01 0.00 0.00 0.00 0.00 0.00 0.00 0.00
0.02 0.02 0.01 0.01 0.02 0.02 0.02 0.02 0.02 0.02 0.02 0.02 0.01 0.01 0.01 0.01 0.01 0.01 0.01 0.01 0.01 0.01 0.01 0.01 0.01 0.01 0.02 0.02 0.02 0.02 0.02 0.01 0.01 0.01 0.01 0.00 0.00 0.00 0.00 0.00 0.00 0.00 0.00 0.00
0.02 0.02 0.02 0.02 0.02 0.02 0.02 0.02 0.01 0.02 0.02 0.01 0.01 0.01 0.01 0.02 0.02 0.02 0.02 0.01 0.01 0.02 0.02 0.02 0.01 0.01 0.01 0.01 0.01 0.01 0.02 0.01 0.01 0.01 0.01 0.01 0.01 0.00 0.00 0.00 0.00 0.00 0.00 0.00
0.01 0.01 0.01 0.01 0.01 0.01 0.01 0.01 0.01 0.01 0.01 0.01 0.01 0.01 0.01 0.01 0.02 0.02 0.02 0.02 0.02 0.02 0.02 0.02 0.01 0.01 0.01 0.01 0.01 0.01 0.01 0.01 0.01 0.01 0.02 0.02 0.02 0.01 0.00 0.00 0.00 0.00 0.00 0.00
0.01 0.01 0.01 0.01 0.01 0.01 0.01 0.01 0.01 0.01 0.01 0.01 0.01 0.01 0.01 0.01 0.01 0.02 0.02 0.02 0.02 0.02 0.02 0.02 0.02 0.02 0.02 0.01 0.01 0.01 0.01 0.01 0.01 0.01 0.01 0.02 0.02 0.01 0.01 0.00 0.00 0.00 0.00 0.00
0.01 0.01 0.01 0.01 0.01 0.01 0.01 0.01 0.01 0.01 0.01 0.01 0.01 0.01 0.01 0.02 0.02 0.02 0.02 0.02 0.01 0.02 0.02 0.02 0.02 0.02 0.02 0.01 0.01 0.01 0.01 0.01 0.01 0.01 0.01 0.02 0.02 0.02 0.01 0.01 0.01 0.01 0.01 0.01
0.00 0.01 0.01 0.01 0.01 0.01 0.01 0.01 0.01 0.00 0.01 0.01 0.01 0.01 0.02 0.02 0.02 0.01 0.02 0.02 0.02 0.02 0.02 0.02 0.02 0.02 0.02 0.01 0.01 0.01 0.01 0.01 0.01 0.01 0.01 0.01 0.01 0.01 0.01 0.01 0.01 0.01 0.01 0.01
0.00 0.00 0.01 0.01 0.01 0.00 0.00 0.00 0.00 0.00 0.01 0.01 0.01 0.01 0.01 0.01 0.01 0.02 0.02 0.02 0.02 0.02 0.02 0.02 0.02 0.02 0.02 0.02 0.01 0.01 0.01 0.01 0.02 0.01 0.01 0.01 0.01 0.01 0.01 0.01 0.01 0.01 0.01 0.00
0.00 0.00 0.00 0.00 0.00 0.00 0.00 0.00 0.00 0.00 0.00 0.00 0.01 0.01 0.01 0.01 0.01 0.01 0.02 0.02 0.01 0.02 0.02 0.02 0.02 0.02 0.02 0.02 0.02 0.02 0.02 0.02 0.02 0.02 0.02 0.01 0.01 0.01 0.01 0.01 0.01 0.01 0.01 0.01
0.01 0.00 0.00 0.00 0.00 0.00 0.00 0.00 0.00 0.00 0.00 0.00 0.00 0.01 0.01 0.01 0.01 0.01 0.01 0.01 0.01 0.01 0.02 0.02 0.02 0.01 0.01 0.01 0.02 0.02 0.02 0.02 0.02 0.02 0.01 0.01 0.01 0.01 0.01 0.01 0.01 0.01 0.01 0.01
0.01 0.01 0.01 0.01 0.00 0.00 0.00 0.00 0.00 0.00 0.00 0.00 0.00 0.00 0.00 0.00 0.01 0.01 0.01 0.01 0.01 0.01 0.02 0.01 0.01 0.01 0.01 0.02 0.02 0.02 0.02 0.02 0.02 0.01 0.01 0.01 0.01 0.01 0.01 0.01 0.01 0.01 0.01 0.01
0.00 0.00 0.00 0.00 0.01 0.01 0.01 0.01 0.00 0.00 0.00 0.01 0.01 0.00 0.00 0.01 0.01 0.01 0.01 0.01 0.01 0.02 0.02 0.02 0.02 0.02 0.02 0.01 0.01 0.01 0.01 0.01 0.01 0.01 0.01 0.01 0.01 0.01 0.01 0.01 0.01 0.01 0.01 0.01
0.00 0.00 0.00 0.00 0.01 0.01 0.01 0.01 0.01 0.01 0.01 0.01 0.01 0.01 0.01 0.01 0.01 0.01 0.01 0.01 0.02 0.02 0.02 0.02 0.02 0.01 0.01 0.01 0.01 0.01 0.01 0.01 0.01 0.01 0.01 0.01 0.01 0.01 0.01 0.01 0.01 0.01 0.01 0.01
0.00 0.00 0.00 0.01 0.01 0.01 0.01 0.01 0.01 0.01 0.01 0.01 0.01 0.01 0.02 0.02 0.02 0.01 0.01 0.01 0.02 0.02 0.02 0.02 0.01 0.01 0.01 0.01 0.01 0.01 0.01 0.01 0.01 0.01 0.01 0.01 0.01 0.01 0.01 0.01 0.01 0.01 0.01 0.01
0.00 0.00 0.00 0.00 0.01 0.01 0.01 0.01 0.01 0.01 0.01 0.01 0.02 0.02 0.02 0.02 0.02 0.02 0.02 0.02 0.02 0.02 0.01 0.01 0.01 0.01 0.01 0.01 0.01 0.01 0.01 0.01 0.01 0.01 0.01 0.01 0.01 0.01 0.01 0.01 0.01 0.01 0.01 0.01
0.00 0.00 0.00 0.00 0.00 0.00 0.00 0.00 0.01 0.01 0.01 0.01 0.01 0.01 0.01 0.01 0.01 0.02 0.02 0.01 0.01 0.01 0.01 0.01 0.01 0.01 0.01 0.01 0.01 0.01 0.01 0.01 0.01 0.01 0.01 0.01 0.01 0.01 0.01 0.01 0.01 0.01 0.01 0.01
0.00 0.00 0.00 0.00 0.00 0.00 0.00 0.00 0.00 0.00 0.00 0.00 0.01 0.01 0.01 0.01 0.01 0.01 0.01 0.01 0.01 0.01 0.01 0.01 0.01 0.01 0.01 0.01 0.01 0.01 0.01 0.01 0.01 0.01 0.01 0.01 0.01 0.01 0.01 0.01 0.01 0.01 0.01 0.01
0.00 0.00 0.00 0.00 0.00 0.00 0.00 0.00 0.00 0.00 0.00 0.00 0.00 0.00 0.00 0.00 0.00 0.00 0.00 0.00 0.00 0.00 0.00 0.00 0.01 0.01 0.01 0.01 0.01 0.01 0.01 0.01 0.01 0.01 0.01 0.01 0.01 0.01 0.01 0.01 0.01 0.01 0.01 0.01
0.00 0.00 0.00 0.00 0.00 0.00 0.00 0.00 0.00 0.00 0.00 0.00 0.00 0.00 0.00 0.00 0.00 0.00 0.00 0.00 0.00 0.00 0.00 0.00 0.00 0.00 0.00 0.01 0.01 0.01 0.01 0.01 0.01 0.01 0.01 0.01 0.01 0.01 0.01 0.01 0.01 0.01 0.01 0.01
0.00 0.00 0.00 0.00 0.00 0.00 0.00 0.00 0.00 0.00 0.00 0.00 0.00 0.00 0.00 0.00 0.00 0.00 0.00 0.00 0.00 0.00 0.00 0.00 0.00 0.01 0.01 0.01 0.01 0.01 0.01 0.01 0.01 0.01 0.01 0.01 0.01 0.01 0.01 0.01 0.01 0.01 0.01 0.01
MSLP
1032.42 1032.80 1033.04 1033.10 1033.01 1032.75 1032.34 1031.82 1031.22 1030.57 1029.92 1029.30 1028.75 1028.29 1027.92 1027.63 1027.41 1027.25 1027.11 1026.99 1026.85 1026.70 1026.55 1026.40 1026.27 1026.16 1026.10 1026.08 1026.09 1026.12 1026.15 1026.17 1026.15 1026.07 1025.93 1025.73 1025.47 1025.18 1024.85 1024.53 1024.21 1023.91 1023.64 1023.41
1033.03 1033.19 1033.13 1032.86 1032.42 1031.84 1031.18 1030.48 1029.81 1029.19 1028.66 1028.24 1027.92 1027.70 1027.55 1027.44 1027.34 1027.24 1027.11 1026.94 1026.73 1026.51 1026.28 1026.08 1025.91 1025.79 1025.73 1025.72 1025.76 1025.81 1025.87 1025.91 1025.90 1025.85 1025.74 1025.58 1025.36 1025.11 1024.82 1024.52 1024.21 1023.91 1023.62 1023.36
1033.40 1033.33 1032.98 1032.40 1031.64 1030.78 1029.90 1029.07 1028.35 1027.78 1027.37 1027.13 1027.03 1027.03 1027.08 1027.13 1027.15 1027.10 1026.99 1026.79 1026.54 1026.26 1025.97 1025.72 1025.51 1025.37 1025.30 1025.29 1025.32 1025.37 1025.43 1025.47 1025.48 1025.45 1025.37 1025.25 1025.08 1024.89 1024.66 1024.41 1024.13 1023.85 1023.55 1023.26
1033.40 1033.11 1032.52 1031.69 1030.69 1029.63 1028.61 1027.70 1026.97 1026.46 1026.17 1026.09 1026.16 1026.34 1026.54 1026.72 1026.82 1026.82 1026.71 1026.50 1026.23 1025.91 1025.59 1025.31 1025.09 1024.93 1024.84 1024.82 1024.84 1024.88 1024.92 1024.96 1024.96 1024.94 1024.89 1024.81 1024.70 1024.57 1024.41 1024.21 1023.99 1023.73 1023.44 1023.12
1032.92 1032.47 1031.71 1030.71 1029.58 1028.42 1027.34 1026.43 1025.75 1025.31 1025.13 1025.17 1025.38 1025.66 1025.96 1026.21 1026.36 1026.38 1026.27 1026.06 1025.77 1025.45 1025.13 1024.85 1024.63 1024.48 1024.40 1024.37 1024.38 1024.40 1024.42 1024.44 1024.44 1024.42 1024.39 1024.34 1024.28 1024.21 1024.10 1023.97 1023.78 1023.55 1023.26 1022.93
1031.91 1031.35 1030.50 1029.45 1028.30 1027.15 1026.11 1025.27 1024.67 1024.34 1024.26 1024.39 1024.67 1025.01 1025.35 1025.62 1025.77 1025.79 1025.68 1025.47 1025.19 1024.88 1024.60 1024.35 1024.17 1024.05 1023.98 1023.96 1023.97 1023.98 1023.98 1023.97 1023.96 1023.93 1023.91 1023.88 1023.86 1023.82 1023.76 1023.67 1023.52 1023.30 1023.01 1022.67
1030.36 1029.76 1028.92 1027.91 1026.84 1025.80 1024.89 1024.17 1023.70 1023.49 1023.50 1023.70 1024.02 1024.38 1024.71 1024.95 1025.08 1025.08 1024.97 1024.77 1024.51 1024.25 1024.02 1023.83 1023.71 1023.64 1023.61 1023.61 1023.62 1023.61 1023.60 1023.57 1023.53 1023.49 1023.46 1023.44 1023.43 1023.42 1023.38 1023.30 1023.16 1022.95 1022.66 1022.29
1028.34 1027.76 1027.00 1026.12 1025.21 1024.36 1023.64 1023.10 1022.79 1022.70 1022.80 1023.05 1023.38 1023.72 1024.02 1024.22 1024.32 1024.30 1024.18 1024.00 1023.79 1023.59 1023.43 1023.31 1023.26 1023.25 1023.26 1023.29 1023.30 1023.29 1023.26 1023.20 1023.14 1023.08 1023.03 1023.00 1022.98 1022.96 1022.93 1022.85 1022.71 1022.48 1022.17 1021.79
1025.97 1025.48 1024.85 1024.16 1023.46 1022.84 1022.34 1022.01 1021.87 1021.91 1022.09 1022.37 1022.70 1023.01 1023.27 1023.43 1023.50 1023.46 1023.36 1023.21 1023.06 1022.92 1022.84 1022.80 1022.82 1022.86 1022.92 1022.96 1022.98 1022.96 1022.90 1022.82 1022.73 1022.64 1022.57 1022.52 1022.48 1022.44 1022.39 1022.29 1022.12 1021.88 1021.55 1021.14
1023.43 1023.05 1022.60 1022.11 1021.65 1021.27 1021.01 1020.88 1020.90 1021.05 1021.31 1021.62 1021.94 1022.23 1022.45 1022.59 1022.63 1022.60 1022.53 1022.43 1022.33 1022.28 1022.26 1022.30 1022.36 1022.45 1022.53 1022.58 1022.60 1022.56 1022.49 1022.38 1022.26 1022.15 1022.04 1021.96 1021.90 1021.84 1021.75 1021.62 1021.43 1021.16 1020.80 1020.38
1020.87 1020.63 1020.36 1020.09 1019.86 1019.71 1019.65 1019.71 1019.87 1020.12 1020.43 1020.76 1021.08 1021.35 1021.56 1021.68 1021.73 1021.73 1021.69 1021.65 1021.62 1021.63 1021.68 1021.76 1021.87 1021.97 1022.06 1022.11 1022.11 1022.06 1021.96 1021.84 1021.70 1021.56 1021.45 1021.34 1021.26 1021.16 1021.05 1020.88 1020.66 1020.36 1019.98 1019.54
1018.43 1018.33 1018.24 1018.17 1018.15 1018.19 1018.31 1018.51 1018.78 1019.10 1019.44 1019.79 1020.10 1020.37 1020.57 1020.71 1020.79 1020.83 1020.84 1020.86 1020.89 1020.95 1021.04 1021.16 1021.28 1021.38 1021.46 1021.50 1021.48 1021.42 1021.31 1021.18 1021.04 1020.91 1020.79 1020.68 1020.58 1020.47 1020.33 1020.14 1019.88 1019.55 1019.16 1018.70
1016.17 1016.22 1016.28 1016.39 1016.54 1016.74 1016.99 1017.29 1017.63 1017.99 1018.36 1018.71 1019.03 1019.29 1019.51 1019.67 1019.79 1019.88 1019.95 1020.02 1020.11 1020.21 1020.32 1020.45 1020.56 1020.66 1020.72 1020.74 1020.72 1020.65 1020.55 1020.44 1020.32 1020.21 1020.11 1020.02 1019.92 1019.80 1019.65 1019.44 1019.16 1018.81 1018.39 1017.93
1014.10 1014.28 1014.49 1014.75 1015.03 1015.35 1015.70 1016.06 1016.44 1016.82 1017.19 1017.54 1017.85 1018.13 1018.36 1018.56 1018.72 1018.86 1018.98 1019.11 1019.23 1019.36 1019.48 1019.61 1019.71 1019.79 1019.84 1019.85 1019.83 1019.78 1019.72 1019.64 1019.57 1019.51 1019.45 1019.39 1019.32 1019.21 1019.06 1018.84 1018.54 1018.18 1017.74 1017.27
1012.19 1012.49 1012.83 1013.20 1013.60 1014.00 1014.40 1014.81 1015.20 1015.59 1015.95 1016.29 1016.60 1016.89 1017.14 1017.37 1017.58 1017.76 1017.94 1018.10 1018.25 1018.39 1018.52 1018.64 1018.73 1018.80 1018.84 1018.86 1018.86 1018.85 1018.84 1018.83 1018.83 1018.83 1018.84 1018.83 1018.80 1018.71 1018.57 1018.35 1018.04 1017.67 1017.22 1016.74
1010.38 1010.79 1011.24 1011.71 1012.18 1012.65 1013.10 1013.52 1013.92 1014.30 1014.65 1014.99 1015.30 1015.60 1015.88 1016.14 1016.38 1016.61 1016.81 1017.00 1017.17 1017.32 1017.45 1017.56 1017.64 1017.71 1017.76 1017.81 1017.85 1017.89 1017.95 1018.02 1018.10 1018.18 1018.26 1018.31 1018.32 1018.27 1018.15 1017.93 1017.63 1017.25 1016.81 1016.33
1008.65 1009.15 1009.69 1010.23 1010.77 1011.28 1011.76 1012.20 1012.60 1012.97 1013.32 1013.66 1013.98 1014.29 1014.59 1014.88 1015.16 1015.41 1015.65 1015.86 1016.04 1016.19 1016.32 1016.42 1016.50 1016.58 1016.65 1016.73 1016.82 1016.93 1017.07 1017.22 1017.38 1017.54 1017.69 1017.80 1017.86 1017.84 1017.73 1017.53 1017.25 1016.88 1016.45 1015.98
1007.01 1007.58 1008.18 1008.78 1009.36 1009.91 1010.40 1010.85 1011.26 1011.64 1012.00 1012.34 1012.68 1013.01 1013.33 1013.65 1013.96 1014.24 1014.49 1014.71 1014.90 1015.05 1015.17 1015.28 1015.37 1015.45 1015.55 1015.67 1015.81 1015.99 1016.19 1016.41 1016.64 1016.87 1017.07 1017.23 1017.32 1017.33 1017.25 1017.07 1016.81 1016.46 1016.06 1015.63
1005.52 1006.13 1006.77 1007.40 1008.01 1008.57 1009.08 1009.54 1009.96 1010.34 1010.72 1011.08 1011.44 1011.80 1012.15 1012.50 1012.83 1013.13 1013.40 1013.63 1013.82 1013.97 1014.09 1014.19 1014.28 1014.39 1014.51 1014.66 1014.84 1015.06 1015.31 1015.58 1015.86 1016.13 1016.36 1016.54 1016.66 1016.69 1016.63 1016.48 1016.24 1015.94 1015.59 1015.21
1004.25 1004.87 1005.52 1006.16 1006.77 1007.33 1007.84 1008.31 1008.73 1009.14 1009.53 1009.92 1010.31 1010.71 1011.09 1011.47 1011.83 1012.15 1012.43 1012.66 1012.85 1012.99 1013.11 1013.21 1013.31 1013.41 1013.55 1013.72 1013.92 1014.16 1014.44 1014.73 1015.02 1015.30 1015.54 1015.73 1015.84 1015.88 1015.84 1015.72 1015.53 1015.28 1015.00 1014.69
1003.27 1003.88 1004.52 1005.13 1005.72 1006.27 1006.77 1007.23 1007.67 1008.09 1008.50 1008.92 1009.35 1009.78 1010.20 1010.61 1010.98 1011.32 1011.61 1011.84 1012.03 1012.16 1012.27 1012.36 1012.45 1012.56 1012.69 1012.86 1013.07 1013.31 1013.58 1013.87 1014.15 1014.41 1014.63 1014.80 1014.91 1014.95 1014.92 1014.83 1014.68 1014.50 1014.28 1014.06
1002.61 1003.20 1003.80 1004.38 1004.92 1005.44 1005.91 1006.36 1006.80 1007.23 1007.67 1008.12 1008.58 1009.04 1009.50 1009.93 1010.32 1010.67 1010.96 1011.19 1011.37 1011.49 1011.59 1011.67 1011.75 1011.84 1011.96 1012.12 1012.31 1012.53 1012.78 1013.03 1013.28 1013.50 1013.69 1013.83 1013.92 1013.95 1013.93 1013.86 1013.76 1013.63 1013.49 1013.34
1002.28 1002.83 1003.38 1003.90 1004.40 1004.86 1005.30 1005.73 1006.16 1006.60 1007.06 1007.53 1008.02 1008.51 1008.99 1009.44 1009.84 1010.20 1010.48 1010.71 1010.87 1010.98 1011.06 1011.12 1011.18 1011.26 1011.36 1011.49 1011.66 1011.85 1012.06 1012.27 1012.48 1012.65 1012.80 1012.90 1012.96 1012.97 1012.95 1012.90 1012.82 1012.74 1012.66 1012.58
1002.21 1002.72 1003.21 1003.68 1004.12 1004.53 1004.93 1005.34 1005.76 1006.20 1006.66 1007.15 1007.66 1008.17 1008.66 1009.12 1009.53 1009.88 1010.16 1010.37 1010.51 1010.61 1010.67 1010.71 1010.75 1010.81 1010.89 1011.00 1011.14 1011.30 1011.47 1011.64 1011.79 1011.92 1012.02 1012.08 1012.10 1012.09 1012.05 1012.00 1011.94 1011.89 1011.84 1011.80
1002.31 1002.79 1003.23 1003.65 1004.03 1004.40 1004.77 1005.15 1005.56 1005.99 1006.47 1006.97 1007.49 1008.00 1008.50 1008.96 1009.37 1009.70 1009.96 1010.15 1010.28 1010.35 1010.39 1010.42 1010.44 1010.48 1010.55 1010.64 1010.75 1010.88 1011.02 1011.15 1011.26 1011.34 1011.39 1011.41 1011.39 1011.35 1011.28 1011.21 1011.15 1011.09 1011.04 1011.00
1002.49 1002.94 1003.35 1003.72 1004.07 1004.41 1004.75 1005.12 1005.52 1005.96 1006.43 1006.94 1007.46 1007.98 1008.48 1008.92 1009.31 1009.63 1009.86 1010.03 1010.13 1010.18 1010.20 1010.21 1010.22 1010.25 1010.30 1010.38 1010.48 1010.59 1010.70 1010.79 1010.87 1010.91 1010.91 1010.88 1010.81 1010.72 1010.62 1010.51 1010.41 1010.32 1010.24 1010.18
1002.67 1003.11 1003.49 1003.84 1004.17 1004.49 1004.83 1005.19 1005.59 1006.04 1006.52 1007.03 1007.56 1008.07 1008.55 1008.98 1009.34 1009.62 1009.83 1009.96 1010.04 1010.06 1010.06 1010.06 1010.06 1010.08 1010.12 1010.19 1010.27 1010.36 1010.45 1010.52 1010.56 1010.56 1010.51 1010.43 1010.31 1010.16 1010.00 1009.84 1009.68 1009.53 1009.40 1009.28
Thickness
5429 5436 5435 5436 5437 5433 5429 5430 5430 5443 5447 5463 5460 5456 5454 5452 5451 5451 5450 5449 5448 5446 5444 5443 5442 5441 5441 5442 5443 5444 5444 5444 5445 5446 5445 5445 5445 5445 5445 5445 5446 5446 5445 5445
5417 5423 5422 5424 5430 5430 5429 5430 5428 5433 5443 5455 5449 5445 5443 5440 5441 5442 5442 5441 5439 5438 5435 5433 5432 5432 5431 5431 5433 5434 5434 5434 5434 5434 5434 5434 5434 5434 5434 5433 5433 5433 5433 5433
5405 5404 5407 5410 5425 5425 5424 5426 5427 5431 5446 5443 5438 5436 5433 5431 5432 5433 5432 5431 5429 5428 5427 5425 5423 5423 5422 5422 5422 5423 5424 5424 5423 5423 5424 5423 5423 5423 5422 5421 5422 5422 5422 5421
5386 5389 5390 5425 5426 5425 5423 5426 5424 5430 5433 5431 5429 5426 5423 5422 5421 5421 5422 5420 5418 5416 5415 5414 5414 5413 5412 5411 5411 5412 5413 5413 5413 5413 5413 5412 5412 5411 5411 5410 5410 5411 5410 5410
5372 5372 5389 5414 5419 5414 5412 5416 5420 5419 5420 5418 5415 5414 5414 5414 5413 5413 5411 5410 5408 5406 5405 5405 5405 5404 5403 5401 5401 5401 5402 5402 5403 5403 5402 5401 5401 5400 5399 5399 5399 5399 5400 5400
5361 5366 5378 5412 5412 5408 5408 5407 5415 5410 5409 5405 5405 5402 5408 5407 5403 5401 5400 5399 5397 5395 5394 5394 5394 5394 5392 5391 5390 5391 5392 5392 5392 5392 5392 5391 5390 5388 5388 5387 5388 5388 5389 5389
5358 5359 5379 5396 5397 5399 5396 5405 5407 5403 5401 5396 5395 5398 5397 5394 5392 5391 5390 5389 5388 5386 5384 5384 5383 5382 5382 5381 5381 5382 5382 5382 5382 5382 5381 5381 5379 5378 5377 5377 5376 5376 5377 5378
5350 5352 5374 5388 5385 5388 5392 5394 5393 5392 5391 5388 5386 5385 5384 5383 5382 5382 5380 5379 5378 5377 5375 5373 5372 5372 5372 5371 5372 5371 5371 5371 5371 5370 5370 5370 5368 5367 5366 5365 5365 5365 5365 5366
5361 5374 5381 5378 5379 5380 5380 5380 5380 5379 5379 5377 5374 5374 5374 5374 5372 5372 5371 5370 5369 5367 5365 5363 5362 5361 5361 5362 5361 5361 5361 5361 5360 5360 5359 5358 5357 5356 5355 5355 5354 5355 5355 5356
5352 5364 5369 5369 5368 5369 5370 5370 5370 5369 5367 5366 5365 5365 5364 5364 5363 5362 5362 5360 5359 5357 5355 5354 5353 5352 5352 5352 5352 5352 5351 5351 5350 5349 5349 5348 5347 5346 5345 5345 5344 5345 5345 5345
5348 5357 5360 5363 5362 5362 5362 5362 5361 5360 5358 5357 5357 5357 5356 5355 5354 5353 5353 5352 5350 5348 5346 5345 5344 5343 5343 5343 5343 5342 5342 5341 5340 5340 5339 5338 5337 5336 5336 5336 5336 5336 5336 5336
5353 5357 5354 5358 5358 5355 5354 5354 5353 5351 5350 5350 5350 5350 5348 5346 5345 5344 5344 5343 5342 5340 5338 5336 5335 5334 5334 5334 5334 5333 5332 5331 5331 5330 5329 5328 5327 5326 5327 5327 5328 5328 5328 5328
5352 5351 5349 5349 5349 5347 5346 5346 5345 5343 5343 5342 5342 5341 5340 5337 5336 5335 5335 5334 5333 5331 5330 5328 5327 5326 5326 5326 5325 5324 5323 5323 5322 5321 5320 5319 5318 5318 5318 5318 5319 5319 5319 5319
5341 5340 5339 5340 5339 5338 5337 5337 5335 5334 5334 5333 5332 5331 5330 5329 5328 5327 5326 5326 5325 5323 5322 5321 5319 5319 5318 5318 5317 5316 5315 5315 5314 5312 5311 5310 5310 5309 5309 5309 5309 5310 5311 5311
5332 5331 5331 5331 5329 5329 5328 5326 5325 5323 5323 5323 5322 5321 5320 5319 5318 5318 5318 5318 5316 5315 5314 5313 5312 5312 5311 5310 5309 5308 5307 5306 5305 5304 5303 5302 5302 5301 5300 5300 5300 5301 5301 5302
5323 5322 5321 5320 5320 5319 5318 5316 5315 5315 5314 5314 5313 5312 5311 5311 5310 5309 5309 5309 5308 5308 5307 5306 5306 5305 5304 5303 5302 5300 5299 5299 5298 5297 5295 5294 5294 5293 5292 5292 5292 5292 5293 5293
5314 5313 5312 5311 5312 5310 5309 5308 5308 5307 5306 5305 5305 5304 5302 5302 5301 5301 5301 5301 5301 5301 5301 5300 5299 5299 5297 5296 5294 5293 5291 5291 5291 5289 5287 5287 5286 5285 5285 5284 5284 5285 5285 5286
5308 5308 5306 5305 5304 5303 5302 5301 5299 5298 5298 5297 5296 5295 5294 5294 5293 5293 5293 5293 5292 5292 5293 5293 5292 5292 5290 5289 5287 5286 5284 5283 5281 5280 5280 5279 5278 5278 5277 5277 5277 5277 5278 5279
5299 5299 5298 5298 5297 5295 5294 5293 5291 5290 5289 5288 5287 5286 5285 5284 5284 5284 5284 5284 5284 5285 5286 5285 5286 5284 5282 5281 5280 5278 5276 5275 5274 5273 5272 5272 5271 5270 5270 5269 5270 5270 5271 5272
5291 5291 5290 5290 5289 5287 5285 5284 5282 5281 5280 5280 5279 5277 5276 5275 5275 5275 5275 5275 5276 5277 5278 5278 5277 5276 5274 5273 5273 5271 5269 5267 5266 5265 5264 5263 5263 5263 5262 5262 5263 5263 5263 5264
5282 5282 5282 5281 5279 5278 5276 5275 5274 5272 5271 5271 5270 5269 5268 5267 5266 5266 5266 5267 5268 5269 5270 5270 5269 5267 5266 5266 5265 5263 5261 5259 5258 5257 5257 5256 5256 5256 5255 5255 5256 5256 5256 5257
5274 5273 5272 5271 5270 5269 5268 5266 5265 5264 5263 5262 5262 5261 5259 5259 5259 5258 5258 5259 5260 5262 5262 5261 5260 5260 5260 5259 5256 5254 5253 5251 5251 5250 5250 5249 5249 5249 5249 5249 5249 5249 5249 5249
5265 5264 5263 5262 5262 5260 5259 5258 5258 5257 5256 5255 5254 5254 5253 5252 5252 5251 5251 5252 5252 5253 5253 5252 5253 5253 5253 5249 5247 5246 5245 5244 5243 5243 5243 5243 5243 5242 5242 5242 5242 5242 5242 5243
5258 5257 5255 5254 5253 5252 5251 5251 5250 5250 5248 5248 5247 5247 5246 5245 5244 5244 5244 5245 5245 5246 5244 5244 5246 5245 5244 5240 5239 5238 5237 5237 5236 5236 5236 5236 5236 5236 5236 5236 5237 5237 5237 5237
5250 5249 5248 5247 5247 5247 5246 5244 5243 5242 5241 5241 5240 5240 5239 5238 5237 5237 5236 5236 5237 5237 5236 5236 5237 5236 5234 5232 5231 5230 5230 5230 5230 5231 5230 5230 5231 5231 5231 5231 5231 5231 5232 5233
5243 5242 5242 5241 5241 5240 5239 5238 5237 5236 5235 5234 5234 5233 5232 5231 5230 5229 5229 5229 5228 5229 5227 5226 5226 5226 5225 5224 5224 5224 5224 5224 5224 5224 5225 5225 5226 5226 5226 5227 5227 5227 5228 5230
5237 5237 5236 5235 5235 5234 5233 5232 5231 5230 5229 5228 5226 5226 5225 5224 5223 5222 5221 5221 5220 5220 5219 5219 5218 5218 5218 5218 5218 5218 5218 5219 5219 5219 5220 5220 5221 5222 5222 5223 5224 5225 5226 5227